Time,TemperatureF,DewpointF,PressureIn,WindDirection,WindDirectionDegrees,WindSpeedMPH,WindSpeedGustMPH,Humidity,HourlyPrecipIn,Conditions,Clouds,dailyrainin,SoftwareType,DateUTC
2013-06-14 00:01:00,68.4,38.2,28.91,North,0,0.0,0.0,33,0.00,,FEW250,0.00,VWS V14.00,2013-06-14 05:01:00,
2013-06-14 00:06:00,67.8,39.2,28.91,North,0,0.0,0.0,35,0.00,,FEW250,0.00,VWS V14.00,2013-06-14 05:06:00,
2013-06-14 00:11:00,67.5,38.9,28.91,North,0,0.0,0.0,35,0.00,,FEW250,0.00,VWS V14.00,2013-06-14 05:11:00,
2013-06-14 00:16:00,67.1,39.3,28.91,North,0,0.0,0.0,36,0.00,,FEW250,0.00,VWS V14.00,2013-06-14 05:16:00,
2013-06-14 00:21:00,66.9,39.1,28.91,North,0,0.0,0.0,36,0.00,,FEW250,0.00,VWS V14.00,2013-06-14 05:21:00,
2013-06-14 00:26:00,66.7,39.7,28.91,North,0,0.0,0.0,37,0.00,,FEW250,0.00,VWS V14.00,2013-06-14 05:26:00,
2013-06-14 00:31:00,66.4,40.0,28.91,North,0,0.0,0.0,38,0.00,,FEW250,0.00,VWS V14.00,2013-06-14 05:31:00,
2013-06-14 00:36:00,66.2,40.5,28.91,North,0,0.0,0.0,39,0.00,,FEW250,0.00,VWS V14.00,2013-06-14 05:36:00,
2013-06-14 00:41:00,66.0,40.4,28.91,North,0,0.0,0.0,39,0.00,,FEW250,0.00,VWS V14.00,2013-06-14 05:41:00,
2013-06-14 00:46:00,66.0,41.7,28.91,North,0,0.0,0.0,41,0.00,,FEW250,0.00,VWS V14.00,2013-06-14 05:46:00,
2013-06-14 00:51:00,65.7,40.7,28.91,North,0,0.0,0.0,40,0.00,,FEW250,0.00,VWS V14.00,2013-06-14 05:51:00,
2013-06-14 00:56:00,65.1,40.2,28.91,North,0,0.0,0.0,40,0.00,,FEW250,0.00,VWS V14.00,2013-06-14 05:56:00,
2013-06-14 01:01:00,64.8,42.4,28.91,North,0,0.0,0.0,44,0.00,,SCT250,0.00,VWS V14.00,2013-06-14 06:01:00,
2013-06-14 01:06:00,64.4,42.0,28.91,North,0,0.0,0.0,44,0.00,,SCT250,0.00,VWS V14.00,2013-06-14 06:06:00,
2013-06-14 01:11:00,64.2,42.5,28.91,North,0,0.0,0.0,45,0.00,,SCT250,0.00,VWS V14.00,2013-06-14 06:11:00,
2013-06-14 01:16:00,63.9,42.7,28.91,North,0,0.0,0.0,46,0.00,,SCT250,0.00,VWS V14.00,2013-06-14 06:16:00,
2013-06-14 01:21:00,63.7,43.6,28.91,North,0,0.0,0.0,48,0.00,,SCT250,0.00,VWS V14.00,2013-06-14 06:21:00,
2013-06-14 01:26:00,63.3,42.8,28.91,North,0,0.0,0.0,47,0.00,,SCT250,0.00,VWS V14.00,2013-06-14 06:26:00,
2013-06-14 01:31:00,63.0,43.0,28.91,North,0,0.0,0.0,48,0.00,,SCT250,0.00,VWS V14.00,2013-06-14 06:31:00,
2013-06-14 01:36:00,63.0,43.0,28.91,North,0,0.0,0.0,48,0.00,,SCT250,0.00,VWS V14.00,2013-06-14 06:36:00,
2013-06-14 01:41:00,63.0,44.6,28.91,North,0,0.0,0.0,51,0.00,,SCT250,0.00,VWS V14.00,2013-06-14 06:41:00,
2013-06-14 01:46:00,63.0,46.1,28.91,North,0,0.0,0.0,54,0.00,,SCT250,0.00,VWS V14.00,2013-06-14 06:46:00,
2013-06-14 01:51:00,63.0,46.1,28.91,North,0,0.0,0.0,54,0.00,,SCT250,0.00,VWS V14.00,2013-06-14 06:51:00,
2013-06-14 01:56:00,63.0,46.1,28.94,North,0,0.0,0.0,54,0.00,,SCT250,0.00,VWS V14.00,2013-06-14 06:56:00,
2013-06-14 02:01:00,62.6,45.7,28.94,North,0,0.0,0.0,54,0.00,,SCT250,0.00,VWS V14.00,2013-06-14 07:01:00,
2013-06-14 02:06:00,62.4,46.1,28.94,North,0,0.0,0.0,55,0.00,,SCT250,0.00,VWS V14.00,2013-06-14 07:06:00,
2013-06-14 02:11:00,62.2,46.4,28.91,North,0,0.0,0.0,56,0.00,,SCT250,0.00,VWS V14.00,2013-06-14 07:11:00,
2013-06-14 02:16:00,62.1,46.7,28.91,North,0,0.0,0.0,57,0.00,,SCT250,0.00,VWS V14.00,2013-06-14 07:16:00,
2013-06-14 02:21:00,62.1,48.5,28.91,North,0,0.0,0.0,61,0.00,,SCT250,0.00,VWS V14.00,2013-06-14 07:21:00,
2013-06-14 02:26:00,62.2,49.5,28.91,North,0,0.0,0.0,63,0.00,,SCT250,0.00,VWS V14.00,2013-06-14 07:26:00,
2013-06-14 02:31:00,62.2,49.5,28.91,North,0,0.0,0.0,63,0.00,,SCT250,0.00,VWS V14.00,2013-06-14 07:31:00,
2013-06-14 02:36:00,62.2,49.1,28.91,North,0,0.0,0.0,62,0.00,,SCT250,0.00,VWS V14.00,2013-06-14 07:36:00,
2013-06-14 02:41:00,62.2,49.5,28.91,North,0,0.0,0.0,63,0.00,,SCT250,0.00,VWS V14.00,2013-06-14 07:41:00,
2013-06-14 02:46:00,62.2,49.1,28.91,North,0,0.0,0.0,62,0.00,,SCT250,0.00,VWS V14.00,2013-06-14 07:46:00,
2013-06-14 02:51:00,62.2,48.6,28.91,North,0,0.0,0.0,61,0.00,,SCT250,0.00,VWS V14.00,2013-06-14 07:51:00,
2013-06-14 02:56:00,62.4,50.1,28.91,North,0,0.0,0.0,64,0.00,,SCT250,0.00,VWS V14.00,2013-06-14 07:56:00,
2013-06-14 03:01:00,62.2,49.5,28.91,North,0,0.0,0.0,63,0.00,,SCT250,0.00,VWS V14.00,2013-06-14 08:01:00,
2013-06-14 03:06:00,62.1,48.9,28.91,North,0,0.0,0.0,62,0.00,,SCT250,0.00,VWS V14.00,2013-06-14 08:06:00,
2013-06-14 03:11:00,61.9,48.7,28.91,North,0,0.0,0.0,62,0.00,,SCT250,0.00,VWS V14.00,2013-06-14 08:11:00,
2013-06-14 03:16:00,61.9,48.7,28.91,North,0,0.0,0.0,62,0.00,,SCT250,0.00,VWS V14.00,2013-06-14 08:16:00,
2013-06-14 03:21:00,62.4,50.1,28.91,North,0,0.0,0.0,64,0.00,,SCT250,0.00,VWS V14.00,2013-06-14 08:21:00,
2013-06-14 03:26:00,63.0,50.2,28.91,North,0,0.0,0.0,63,0.00,,SCT250,0.00,VWS V14.00,2013-06-14 08:26:00,
2013-06-14 03:31:00,63.0,50.2,28.91,North,0,0.0,0.0,63,0.00,,SCT250,0.00,VWS V14.00,2013-06-14 08:31:00,
2013-06-14 03:36:00,63.1,49.5,28.91,North,0,0.0,0.0,61,0.00,,SCT250,0.00,VWS V14.00,2013-06-14 08:36:00,
2013-06-14 03:41:00,63.3,48.3,28.91,North,0,0.0,0.0,58,0.00,,SCT250,0.00,VWS V14.00,2013-06-14 08:41:00,
2013-06-14 03:46:00,63.5,47.5,28.91,North,0,0.0,0.0,56,0.00,,SCT250,0.00,VWS V14.00,2013-06-14 08:46:00,
2013-06-14 03:51:00,63.7,47.7,28.91,North,0,0.0,0.0,56,0.00,,SCT250,0.00,VWS V14.00,2013-06-14 08:51:00,
2013-06-14 03:56:00,63.7,47.2,28.91,North,0,0.0,0.0,55,0.00,,SCT250,0.00,VWS V14.00,2013-06-14 08:56:00,
2013-06-14 04:01:00,63.1,46.2,28.91,North,0,0.0,0.0,54,0.00,,BKN200,0.00,VWS V14.00,2013-06-14 09:01:00,
2013-06-14 04:06:00,63.0,46.6,28.91,North,0,0.0,0.0,55,0.00,,BKN200,0.00,VWS V14.00,2013-06-14 09:06:00,
2013-06-14 04:11:00,62.8,46.9,28.91,North,0,0.0,0.0,56,0.00,,BKN200,0.00,VWS V14.00,2013-06-14 09:11:00,
2013-06-14 04:16:00,62.8,46.9,28.91,North,0,0.0,0.0,56,0.00,,BKN200,0.00,VWS V14.00,2013-06-14 09:16:00,
2013-06-14 04:21:00,63.0,47.5,28.91,North,0,0.0,0.0,57,0.00,,BKN200,0.00,VWS V14.00,2013-06-14 09:21:00,
2013-06-14 04:26:00,63.1,48.6,28.91,North,0,0.0,0.0,59,0.00,,BKN200,0.00,VWS V14.00,2013-06-14 09:26:00,
2013-06-14 04:31:00,63.5,48.9,28.91,North,0,0.0,0.0,59,0.00,,BKN200,0.00,VWS V14.00,2013-06-14 09:31:00,
2013-06-14 04:36:00,63.9,48.8,28.91,North,0,0.0,0.0,58,0.00,,BKN200,0.00,VWS V14.00,2013-06-14 09:36:00,
2013-06-14 04:41:00,64.0,48.5,28.91,North,0,0.0,0.0,57,0.00,,BKN200,0.00,VWS V14.00,2013-06-14 09:41:00,
2013-06-14 04:46:00,64.2,47.2,28.91,North,0,0.0,0.0,54,0.00,,BKN200,0.00,VWS V14.00,2013-06-14 09:46:00,
2013-06-14 04:51:00,64.4,45.9,28.91,North,0,0.0,0.0,51,0.00,,BKN200,0.00,VWS V14.00,2013-06-14 09:51:00,
2013-06-14 04:56:00,64.4,45.4,28.91,North,0,2.7,2.7,50,0.00,,BKN200,0.00,VWS V14.00,2013-06-14 09:56:00,
2013-06-14 05:01:00,64.8,44.6,28.91,North,6,2.2,3.1,48,0.00,,OVC130,0.00,VWS V14.00,2013-06-14 10:01:00,
2013-06-14 05:06:00,65.1,44.4,28.91,North,5,4.9,4.9,47,0.00,,OVC130,0.00,VWS V14.00,2013-06-14 10:06:00,
2013-06-14 05:11:00,65.1,43.8,28.88,North,4,2.2,3.1,46,0.00,,OVC130,0.00,VWS V14.00,2013-06-14 10:11:00,
2013-06-14 05:16:00,64.9,43.7,28.88,NNE,15,0.0,3.6,46,0.00,,OVC130,0.00,VWS V14.00,2013-06-14 10:16:00,
2013-06-14 05:21:00,64.8,44.1,28.88,NNE,15,0.0,0.0,47,0.00,,OVC130,0.00,VWS V14.00,2013-06-14 10:21:00,
2013-06-14 05:26:00,64.4,44.8,28.88,NNE,15,0.0,0.0,49,0.00,,OVC130,0.00,VWS V14.00,2013-06-14 10:26:00,
2013-06-14 05:31:00,64.0,45.0,28.88,North,357,3.1,3.1,50,0.00,,OVC130,0.00,VWS V14.00,2013-06-14 10:31:00,
2013-06-14 05:36:00,64.0,45.0,28.88,NNW,343,0.0,3.6,50,0.00,,OVC130,0.00,VWS V14.00,2013-06-14 10:36:00,
2013-06-14 05:41:00,64.2,45.2,28.91,North,0,0.0,4.0,50,0.00,,OVC130,0.00,VWS V14.00,2013-06-14 10:41:00,
2013-06-14 05:46:00,64.8,44.6,28.91,NNW,348,2.7,4.0,48,0.00,,OVC130,0.00,VWS V14.00,2013-06-14 10:46:00,
2013-06-14 05:51:00,64.9,43.7,28.91,NE,37,3.1,3.1,46,0.00,,OVC130,0.00,VWS V14.00,2013-06-14 10:51:00,
2013-06-14 05:56:00,65.3,42.8,28.91,NNE,22,0.0,3.1,44,0.00,,OVC130,0.00,VWS V14.00,2013-06-14 10:56:00,
2013-06-14 06:01:00,65.5,43.0,28.91,NNE,22,2.2,2.2,44,0.00,,BKN130,0.00,VWS V14.00,2013-06-14 11:01:00,
2013-06-14 06:06:00,65.7,43.2,28.91,North,11,2.7,3.1,44,0.00,,BKN130,0.00,VWS V14.00,2013-06-14 11:06:00,
2013-06-14 06:11:00,65.7,43.2,28.91,North,357,2.7,4.0,44,0.00,,BKN130,0.00,VWS V14.00,2013-06-14 11:11:00,
2013-06-14 06:16:00,65.7,43.2,28.91,NE,46,0.0,4.0,44,0.00,,BKN130,0.00,VWS V14.00,2013-06-14 11:16:00,
2013-06-14 06:21:00,65.7,43.2,28.91,NE,46,0.0,0.0,44,0.00,,BKN130,0.00,VWS V14.00,2013-06-14 11:21:00,
2013-06-14 06:26:00,65.7,43.2,28.94,NE,46,0.0,0.0,44,0.00,,BKN130,0.00,VWS V14.00,2013-06-14 11:26:00,
2013-06-14 06:31:00,65.8,43.3,28.94,NE,46,0.0,0.0,44,0.00,,BKN130,0.00,VWS V14.00,2013-06-14 11:31:00,
2013-06-14 06:36:00,65.8,43.3,28.94,NE,46,0.0,0.0,44,0.00,,BKN130,0.00,VWS V14.00,2013-06-14 11:36:00,
2013-06-14 06:41:00,65.7,43.2,28.94,NE,46,0.0,0.0,44,0.00,,BKN130,0.00,VWS V14.00,2013-06-14 11:41:00,
2013-06-14 06:46:00,65.8,43.3,28.94,NE,46,0.0,0.0,44,0.00,,BKN130,0.00,VWS V14.00,2013-06-14 11:46:00,
2013-06-14 06:51:00,66.0,43.5,28.94,NE,46,0.0,0.0,44,0.00,,BKN130,0.00,VWS V14.00,2013-06-14 11:51:00,
2013-06-14 06:56:00,66.2,43.7,28.94,NE,46,0.0,0.0,44,0.00,,BKN130,0.00,VWS V14.00,2013-06-14 11:56:00,
2013-06-14 07:01:00,66.7,43.5,28.94,NE,46,0.0,0.0,43,0.00,,OVC130,0.00,VWS V14.00,2013-06-14 12:01:00,
2013-06-14 07:06:00,67.1,42.6,28.94,NE,46,0.0,0.0,41,0.00,,OVC130,0.00,VWS V14.00,2013-06-14 12:06:00,
2013-06-14 07:11:00,67.1,42.0,28.91,NNE,22,3.1,3.1,40,0.00,,OVC130,0.00,VWS V14.00,2013-06-14 12:11:00,
2013-06-14 07:16:00,67.3,41.5,28.91,NE,35,0.0,3.1,39,0.00,,OVC130,0.00,VWS V14.00,2013-06-14 12:16:00,
2013-06-14 07:21:00,67.8,41.3,28.91,NE,35,0.0,0.0,38,0.00,,OVC130,0.00,VWS V14.00,2013-06-14 12:21:00,
2013-06-14 07:26:00,68.2,40.9,28.91,ENE,73,0.0,5.8,37,0.00,,OVC130,0.00,VWS V14.00,2013-06-14 12:26:00,
2013-06-14 07:31:00,68.2,40.9,28.91,NNE,28,0.0,0.0,37,0.00,,OVC130,0.00,VWS V14.00,2013-06-14 12:31:00,
2013-06-14 07:36:00,68.9,40.9,28.91,NE,40,0.0,3.6,36,0.00,,OVC130,0.00,VWS V14.00,2013-06-14 12:36:00,
2013-06-14 07:41:00,70.0,39.6,28.91,NE,35,0.0,3.1,33,0.00,,OVC130,0.00,VWS V14.00,2013-06-14 12:41:00,
2013-06-14 07:46:00,70.7,39.4,28.91,NNE,29,0.0,5.4,32,0.00,,OVC130,0.00,VWS V14.00,2013-06-14 12:46:00,
2013-06-14 07:51:00,72.1,37.3,28.91,NE,39,3.1,3.6,28,0.00,,OVC130,0.00,VWS V14.00,2013-06-14 12:51:00,
2013-06-14 07:56:00,73.0,36.2,28.91,NE,45,3.1,6.3,26,0.00,,OVC130,0.00,VWS V14.00,2013-06-14 12:56:00,
2013-06-14 08:01:00,74.3,35.2,28.91,North,11,5.8,5.8,24,0.00,,SCT250,0.00,VWS V14.00,2013-06-14 13:01:00,
2013-06-14 08:06:00,74.8,34.6,28.91,NNE,26,2.7,5.8,23,0.00,,SCT250,0.00,VWS V14.00,2013-06-14 13:06:00,
2013-06-14 08:11:00,75.0,35.8,28.91,NNE,20,0.0,2.2,24,0.00,,SCT250,0.00,VWS V14.00,2013-06-14 13:11:00,
2013-06-14 08:16:00,74.7,34.4,28.91,ENE,73,3.6,4.9,23,0.00,,SCT250,0.00,VWS V14.00,2013-06-14 13:16:00,
2013-06-14 08:21:00,75.2,34.9,28.91,ESE,119,2.2,2.7,23,0.00,,SCT250,0.00,VWS V14.00,2013-06-14 13:21:00,
2013-06-14 08:26:00,77.4,34.4,28.91,North,3,0.0,4.9,21,0.00,,SCT250,0.00,VWS V14.00,2013-06-14 13:26:00,
2013-06-14 08:31:00,75.9,34.4,28.91,NE,39,0.0,0.0,22,0.00,,SCT250,0.00,VWS V14.00,2013-06-14 13:31:00,
2013-06-14 08:36:00,75.9,34.4,28.91,SE,131,7.2,7.2,22,0.00,,SCT250,0.00,VWS V14.00,2013-06-14 13:36:00,
2013-06-14 08:41:00,75.4,33.9,28.91,NE,41,0.0,0.0,22,0.00,,SCT250,0.00,VWS V14.00,2013-06-14 13:41:00,
2013-06-14 08:46:00,73.6,34.6,28.91,NNE,22,4.0,6.3,24,0.00,,SCT250,0.00,VWS V14.00,2013-06-14 13:46:00,
2013-06-14 08:51:00,76.6,35.0,28.91,NE,39,0.0,0.0,22,0.00,,SCT250,0.00,VWS V14.00,2013-06-14 13:51:00,
2013-06-14 08:56:00,79.9,35.3,28.91,East,91,0.0,5.4,20,0.00,,SCT250,0.00,VWS V14.00,2013-06-14 13:56:00,
2013-06-14 09:01:00,81.7,36.8,28.88,ESE,115,0.0,2.7,20,0.00,,BKN250,0.00,VWS V14.00,2013-06-14 14:01:00,
2013-06-14 09:06:00,82.2,35.9,28.88,NNE,24,4.0,5.8,19,0.00,,BKN250,0.00,VWS V14.00,2013-06-14 14:06:00,
2013-06-14 09:11:00,80.2,35.6,28.88,NE,46,4.0,4.9,20,0.00,,BKN250,0.00,VWS V14.00,2013-06-14 14:11:00,
2013-06-14 09:16:00,78.3,33.9,28.88,ESE,114,4.0,5.4,20,0.00,,BKN250,0.00,VWS V14.00,2013-06-14 14:16:00,
2013-06-14 09:21:00,76.8,34.0,28.88,East,93,3.6,4.0,21,0.00,,BKN250,0.00,VWS V14.00,2013-06-14 14:21:00,
2013-06-14 09:26:00,75.0,33.6,28.91,NE,55,3.1,5.4,22,0.00,,BKN250,0.00,VWS V14.00,2013-06-14 14:26:00,
2013-06-14 09:31:00,73.9,34.9,28.91,NE,34,0.0,3.1,24,0.00,,BKN250,0.00,VWS V14.00,2013-06-14 14:31:00,
2013-06-14 09:36:00,73.4,34.5,28.91,SE,137,2.2,4.9,24,0.00,,BKN250,0.00,VWS V14.00,2013-06-14 14:36:00,
2013-06-14 09:41:00,72.7,34.9,28.91,NE,52,0.0,0.0,25,0.00,,BKN250,0.00,VWS V14.00,2013-06-14 14:41:00,
2013-06-14 09:46:00,72.1,35.4,28.91,ESE,111,0.0,0.0,26,0.00,,BKN250,0.00,VWS V14.00,2013-06-14 14:46:00,
2013-06-14 09:51:00,71.8,37.0,28.91,ESE,111,0.0,2.2,28,0.00,,BKN250,0.00,VWS V14.00,2013-06-14 14:51:00,
2013-06-14 09:56:00,71.2,37.4,28.91,SE,140,2.2,3.6,29,0.00,,BKN250,0.00,VWS V14.00,2013-06-14 14:56:00,
2013-06-14 10:01:00,70.9,37.9,28.91,SE,125,2.7,3.6,30,0.00,,BKN250,0.00,VWS V14.00,2013-06-14 15:01:00,
2013-06-14 10:06:00,70.7,38.6,28.91,SE,126,0.0,3.6,31,0.00,,OVC150,0.00,VWS V14.00,2013-06-14 15:06:00,
2013-06-14 10:11:00,70.5,39.3,28.94,SE,126,0.0,3.1,32,0.00,,OVC150,0.00,VWS V14.00,2013-06-14 15:11:00,
2013-06-14 10:15:00,70.2,39.0,28.94,ESE,108,0.0,3.6,32,0.00,,OVC150,0.00,VWS V14.00,2013-06-14 15:15:00,
2013-06-14 10:20:00,70.0,38.8,28.94,East,84,3.1,3.1,32,0.00,,OVC150,0.00,VWS V14.00,2013-06-14 15:20:00,
2013-06-14 10:25:00,69.8,39.4,28.91,ENE,74,0.0,3.1,33,0.00,,OVC150,0.00,VWS V14.00,2013-06-14 15:25:00,
2013-06-14 10:30:00,69.3,39.7,28.91,East,100,0.0,0.0,34,0.00,,OVC150,0.00,VWS V14.00,2013-06-14 15:30:00,
2013-06-14 10:35:00,68.4,41.8,28.91,NE,42,0.0,3.6,38,0.00,,OVC150,0.00,VWS V14.00,2013-06-14 15:35:00,
2013-06-14 10:40:00,68.0,44.7,28.88,NE,35,5.4,5.4,43,0.00,,OVC150,0.00,VWS V14.00,2013-06-14 15:40:00,
2013-06-14 10:45:00,67.3,45.2,28.88,NE,41,0.0,5.8,45,0.00,,OVC150,0.00,VWS V14.00,2013-06-14 15:45:00,
2013-06-14 10:50:00,66.7,45.9,28.88,NNE,27,3.1,4.9,47,0.00,,OVC150,0.00,VWS V14.00,2013-06-14 15:50:00,
2013-06-14 10:55:00,66.6,46.3,28.88,NE,40,2.7,5.4,48,0.00,,OVC150,0.00,VWS V14.00,2013-06-14 15:55:00,
2013-06-14 11:00:00,65.8,48.8,28.88,NE,43,0.0,5.4,54,0.00,,-RA,0.00,VWS V14.00,2013-06-14 16:00:00,
2013-06-14 11:05:00,64.8,51.0,28.88,NE,47,3.6,5.4,61,0.00,,-RA,0.00,VWS V14.00,2013-06-14 16:05:00,
2013-06-14 11:10:00,64.6,52.1,28.88,NE,34,4.9,4.9,64,0.00,,-RA,0.00,VWS V14.00,2013-06-14 16:10:00,
2013-06-14 11:15:00,64.2,52.2,28.88,ENE,59,2.2,4.9,65,0.00,,OVC110,0.00,VWS V14.00,2013-06-14 16:15:00,
2013-06-14 11:20:00,64.2,53.5,28.88,NNE,30,3.6,8.1,68,0.00,,OVC110,0.00,VWS V14.00,2013-06-14 16:20:00,
2013-06-14 11:25:00,64.0,53.7,28.88,East,90,4.0,8.1,69,0.00,,OVC110,0.00,VWS V14.00,2013-06-14 16:25:00,
2013-06-14 11:30:00,63.9,54.7,28.85,NE,55,6.3,6.3,72,0.00,,OVC110,0.00,VWS V14.00,2013-06-14 16:30:00,
2013-06-14 11:35:00,63.7,54.9,28.85,East,91,4.0,8.3,73,0.00,,OVC110,0.00,VWS V14.00,2013-06-14 16:35:00,
2013-06-14 11:40:00,63.9,56.5,28.85,East,94,3.1,4.9,77,0.00,,OVC110,0.00,VWS V14.00,2013-06-14 16:40:00,
2013-06-14 11:45:00,63.7,56.7,28.85,SSE,147,2.7,5.8,78,0.00,,OVC110,0.00,VWS V14.00,2013-06-14 16:45:00,
2013-06-14 11:50:00,63.5,56.9,28.85,SE,138,3.6,5.4,79,0.00,,-RA,0.00,VWS V14.00,2013-06-14 16:50:00,
2013-06-14 11:55:00,63.7,57.4,28.85,East,90,3.6,5.8,80,0.00,,-RA,0.00,VWS V14.00,2013-06-14 16:55:00,
2013-06-14 12:00:00,63.9,58.3,28.85,East,87,2.7,6.3,82,0.00,,-RA,0.00,VWS V14.00,2013-06-14 17:00:00,
2013-06-14 12:05:00,63.9,58.3,28.85,East,93,7.6,7.6,82,0.00,,-RA,0.00,VWS V14.00,2013-06-14 17:05:00,
2013-06-14 12:10:00,64.0,58.8,28.85,East,94,3.1,6.3,83,0.00,,OVC150,0.00,VWS V14.00,2013-06-14 17:10:00,
2013-06-14 12:15:00,64.2,59.3,28.82,NW,322,2.2,6.3,84,0.00,,OVC150,0.00,VWS V14.00,2013-06-14 17:15:00,
2013-06-14 12:20:00,64.4,59.5,28.82,NNE,20,3.1,3.1,84,0.00,,OVC150,0.00,VWS V14.00,2013-06-14 17:20:00,
2013-06-14 12:25:00,64.8,60.2,28.82,ENE,60,2.7,5.8,85,0.00,,OVC150,0.00,VWS V14.00,2013-06-14 17:25:00,
2013-06-14 12:30:00,65.1,60.8,28.82,NE,34,0.0,0.0,86,0.00,,OVC150,0.00,VWS V14.00,2013-06-14 17:30:00,
2013-06-14 12:35:00,65.7,61.7,28.82,SSW,194,0.0,0.0,87,0.00,,OVC150,0.00,VWS V14.00,2013-06-14 17:35:00,
2013-06-14 12:40:00,65.8,61.9,28.82,SE,129,0.0,0.0,87,0.00,,OVC150,0.00,VWS V14.00,2013-06-14 17:40:00,
2013-06-14 12:45:00,66.0,62.0,28.88,ESE,108,0.0,0.0,87,0.00,,OVC150,0.00,VWS V14.00,2013-06-14 17:45:00,
2013-06-14 12:50:00,65.7,61.4,28.88,ENE,76,3.6,6.3,86,0.00,,OVC150,0.00,VWS V14.00,2013-06-14 17:50:00,
2013-06-14 12:55:00,65.7,61.0,28.88,East,83,2.2,8.7,85,0.00,,OVC150,0.00,VWS V14.00,2013-06-14 17:55:00,
2013-06-14 13:00:00,66.0,61.4,28.82,NNE,32,0.0,0.0,85,0.00,,-RA,0.00,VWS V14.00,2013-06-14 18:00:00,
2013-06-14 13:05:00,66.2,61.2,28.82,NNE,13,0.0,6.7,84,0.00,,-RA,0.00,VWS V14.00,2013-06-14 18:05:00,
2013-06-14 13:10:00,65.8,60.5,28.85,East,88,3.6,5.4,83,0.00,,-RA,0.00,VWS V14.00,2013-06-14 18:10:00,
2013-06-14 13:15:00,66.2,60.9,28.85,East,88,0.0,5.4,83,0.00,,-RA,0.00,VWS V14.00,2013-06-14 18:15:00,
2013-06-14 13:20:00,66.0,60.4,28.85,NE,45,0.0,0.0,82,0.00,,-RA,0.00,VWS V14.00,2013-06-14 18:20:00,
2013-06-14 13:25:00,66.4,60.7,28.85,ENE,58,0.0,3.1,82,0.00,,-RA,0.00,VWS V14.00,2013-06-14 18:25:00,
2013-06-14 13:30:00,66.7,61.1,28.85,ENE,58,0.0,0.0,82,0.00,,-RA,0.00,VWS V14.00,2013-06-14 18:30:00,
2013-06-14 13:35:00,66.9,61.2,28.85,NE,48,0.0,0.0,82,0.00,,-RA,0.00,VWS V14.00,2013-06-14 18:35:00,
2013-06-14 13:40:00,67.3,60.9,28.85,NE,48,0.0,0.0,80,0.00,,-RA,0.00,VWS V14.00,2013-06-14 18:40:00,
2013-06-14 13:45:00,68.0,60.5,28.85,NNE,33,0.0,3.6,77,0.00,,-RA,0.00,VWS V14.00,2013-06-14 18:45:00,
2013-06-14 13:50:00,70.2,61.5,28.85,NNE,33,0.0,0.0,74,0.00,,-RA,0.00,VWS V14.00,2013-06-14 18:50:00,
2013-06-14 13:55:00,71.6,60.5,28.88,NNE,33,0.0,0.0,68,0.00,,-RA,0.00,VWS V14.00,2013-06-14 18:55:00,
2013-06-14 14:00:00,73.6,58.8,28.88,NNE,33,0.0,0.0,60,0.00,,OVC150,0.00,VWS V14.00,2013-06-14 19:00:00,
2013-06-14 14:05:00,75.7,55.2,28.88,NNE,33,0.0,0.0,49,0.00,,OVC150,0.00,VWS V14.00,2013-06-14 19:05:00,
2013-06-14 14:10:00,77.5,47.8,28.88,NNE,21,2.7,3.1,35,0.00,,OVC150,0.00,VWS V14.00,2013-06-14 19:10:00,
2013-06-14 14:15:00,80.8,46.5,28.88,NNE,21,4.0,5.4,30,0.00,,OVC150,0.00,VWS V14.00,2013-06-14 19:15:00,
2013-06-14 14:20:00,81.0,45.8,28.88,NE,34,0.0,3.1,29,0.00,,OVC150,0.00,VWS V14.00,2013-06-14 19:20:00,
2013-06-14 14:25:00,81.9,46.5,28.88,NNE,24,0.0,4.0,29,0.00,,OVC150,0.00,VWS V14.00,2013-06-14 19:25:00,
2013-06-14 14:30:00,79.2,45.1,28.85,NE,47,2.7,5.4,30,0.00,,OVC150,0.00,VWS V14.00,2013-06-14 19:30:00,
2013-06-14 14:35:00,79.5,45.4,28.85,NNE,18,0.0,5.4,30,0.00,,OVC150,0.00,VWS V14.00,2013-06-14 19:35:00,
2013-06-14 14:40:00,80.8,45.6,28.85,SE,125,0.0,3.6,29,0.00,,OVC150,0.00,VWS V14.00,2013-06-14 19:40:00,
2013-06-14 14:45:00,82.9,42.5,28.85,NE,54,3.1,5.8,24,0.00,,OVC150,0.00,VWS V14.00,2013-06-14 19:45:00,
2013-06-14 14:50:00,86.9,41.0,28.85,ESE,103,3.1,4.0,20,0.00,,OVC150,0.00,VWS V14.00,2013-06-14 19:50:00,
2013-06-14 14:55:00,87.1,39.9,28.85,East,83,0.0,8.7,19,0.00,,OVC150,0.00,VWS V14.00,2013-06-14 19:55:00,
2013-06-14 15:00:00,90.7,41.4,28.85,NNE,22,3.1,3.1,18,0.00,,BKN250,0.00,VWS V14.00,2013-06-14 20:00:00,
2013-06-14 15:05:00,91.0,41.7,28.85,ESE,117,2.2,8.1,18,0.00,,BKN250,0.00,VWS V14.00,2013-06-14 20:05:00,
2013-06-14 15:10:00,88.0,40.6,28.85,NE,48,2.7,2.7,19,0.00,,BKN250,0.00,VWS V14.00,2013-06-14 20:10:00,
2013-06-14 15:15:00,87.8,39.1,28.82,North,6,3.6,8.1,18,0.00,,BKN250,0.00,VWS V14.00,2013-06-14 20:15:00,
2013-06-14 15:20:00,86.4,39.3,28.82,East,99,2.7,8.7,19,0.00,,BKN250,0.00,VWS V14.00,2013-06-14 20:20:00,
2013-06-14 15:25:00,89.6,40.5,28.82,ENE,65,9.6,9.6,18,0.00,,BKN250,0.00,VWS V14.00,2013-06-14 20:25:00,
2013-06-14 15:30:00,90.3,41.1,28.82,East,96,2.7,4.9,18,0.00,,BKN250,0.00,VWS V14.00,2013-06-14 20:30:00,
2013-06-14 15:35:00,89.2,40.2,28.82,ESE,111,4.0,11.4,18,0.00,,BKN250,0.00,VWS V14.00,2013-06-14 20:35:00,
2013-06-14 15:40:00,86.4,37.9,28.82,SE,128,2.7,3.6,18,0.00,,BKN250,0.00,VWS V14.00,2013-06-14 20:40:00,
2013-06-14 15:45:00,82.8,37.6,28.82,NE,46,4.0,6.3,20,0.00,,BKN250,0.00,VWS V14.00,2013-06-14 20:45:00,
2013-06-14 15:50:00,83.3,38.1,28.82,SE,133,4.0,4.0,20,0.00,,BKN250,0.00,VWS V14.00,2013-06-14 20:50:00,
2013-06-14 15:55:00,81.5,36.6,28.82,ENE,76,2.7,5.4,20,0.00,,BKN250,0.00,VWS V14.00,2013-06-14 20:55:00,
2013-06-14 16:00:00,78.6,37.8,28.82,ENE,63,4.0,4.0,23,0.00,,BKN250,0.00,VWS V14.00,2013-06-14 21:00:00,
2013-06-14 16:05:00,77.2,38.7,28.82,NE,55,2.2,7.6,25,0.00,,BKN250,0.00,VWS V14.00,2013-06-14 21:05:00,
2013-06-14 16:10:00,75.9,42.3,28.82,East,88,3.1,3.1,30,0.00,,BKN250,0.00,VWS V14.00,2013-06-14 21:10:00,
2013-06-14 16:15:00,75.0,42.4,28.82,SE,146,8.1,8.1,31,0.00,,BKN250,0.00,VWS V14.00,2013-06-14 21:15:00,
2013-06-14 16:20:00,74.1,42.4,28.82,SE,135,3.6,3.6,32,0.00,,BKN250,0.00,VWS V14.00,2013-06-14 21:20:00,
2013-06-14 16:25:00,73.2,42.4,28.82,ENE,57,0.0,8.1,33,0.00,,BKN250,0.00,VWS V14.00,2013-06-14 21:25:00,
2013-06-14 16:30:00,72.5,43.3,28.85,North,8,2.7,2.7,35,0.00,,BKN250,0.00,VWS V14.00,2013-06-14 21:30:00,
2013-06-14 16:35:00,72.0,42.8,28.85,NNE,21,0.0,4.9,35,0.00,,BKN250,0.00,VWS V14.00,2013-06-14 21:35:00,
2013-06-14 16:40:00,71.6,42.5,28.85,SE,136,0.0,0.0,35,0.00,,,0.00,VWS V14.00,2013-06-14 21:40:00,
2013-06-14 16:45:00,71.2,43.7,28.85,South,182,0.0,0.0,37,0.00,,,0.00,VWS V14.00,2013-06-14 21:45:00,
2013-06-14 16:50:00,70.3,46.8,28.85,SSE,157,5.4,8.3,43,0.00,,,0.00,VWS V14.00,2013-06-14 21:50:00,
2013-06-14 16:55:00,67.8,54.3,28.85,NE,47,4.9,8.3,62,0.00,,,0.00,VWS V14.00,2013-06-14 21:55:00,
2013-06-14 17:00:00,66.4,56.3,28.88,SSW,213,0.0,0.0,70,0.00,,,0.00,VWS V14.00,2013-06-14 22:00:00,
2013-06-14 17:05:00,66.2,58.0,28.88,WSW,242,0.0,0.0,75,0.00,,,0.00,VWS V14.00,2013-06-14 22:05:00,
2013-06-14 17:10:00,66.4,60.0,28.88,NNE,29,0.0,0.0,80,0.00,,OVC065CB,0.00,VWS V14.00,2013-06-14 22:10:00,
2013-06-14 17:15:00,66.2,60.5,28.88,NNE,24,0.0,0.0,82,0.00,,OVC065CB,0.00,VWS V14.00,2013-06-14 22:15:00,
2013-06-14 17:20:00,66.6,61.6,28.88,North,10,4.9,5.4,84,0.00,,OVC065CB,0.00,VWS V14.00,2013-06-14 22:20:00,
2013-06-14 17:25:00,66.4,62.1,28.88,NE,36,3.6,5.8,86,0.00,,OVC160,0.00,VWS V14.00,2013-06-14 22:25:00,
2013-06-14 17:30:00,66.2,61.9,28.85,NNE,18,5.4,5.4,86,0.00,,OVC160,0.00,VWS V14.00,2013-06-14 22:30:00,
2013-06-14 17:35:00,66.2,62.2,28.85,ENE,59,2.7,5.4,87,0.00,,OVC160,0.00,VWS V14.00,2013-06-14 22:35:00,
2013-06-14 17:40:00,66.0,62.4,28.85,ENE,68,2.7,4.0,88,0.00,,OVC160,0.00,VWS V14.00,2013-06-14 22:40:00,
2013-06-14 17:45:00,65.8,62.2,28.88,NNW,345,3.6,5.4,88,0.00,,OVC160,0.00,VWS V14.00,2013-06-14 22:45:00,
2013-06-14 17:50:00,65.7,62.3,28.88,NNE,27,2.7,3.1,89,0.00,,OVC200,0.00,VWS V14.00,2013-06-14 22:50:00,
2013-06-14 17:55:00,65.8,62.5,28.88,East,87,4.0,5.4,89,0.00,,OVC200,0.00,VWS V14.00,2013-06-14 22:55:00,
2013-06-14 18:00:00,65.7,62.3,28.85,North,3,5.8,6.3,89,0.00,,OVC200,0.00,VWS V14.00,2013-06-14 23:00:00,
2013-06-14 18:05:00,65.7,62.7,28.85,NNE,28,5.8,7.6,90,0.00,,,0.00,VWS V14.00,2013-06-14 23:05:00,
2013-06-14 18:10:00,65.7,62.7,28.85,North,4,6.3,6.3,90,0.00,,,0.00,VWS V14.00,2013-06-14 23:10:00,
2013-06-14 18:15:00,65.8,62.8,28.85,North,11,3.6,7.2,90,0.00,,,0.00,VWS V14.00,2013-06-14 23:15:00,
2013-06-14 18:20:00,65.8,62.8,28.85,NE,54,2.7,2.7,90,0.00,,,0.00,VWS V14.00,2013-06-14 23:20:00,
2013-06-14 18:25:00,66.0,63.0,28.85,NE,40,0.0,2.7,90,0.00,,,0.00,VWS V14.00,2013-06-14 23:25:00,
2013-06-14 18:30:00,66.0,63.0,28.88,NE,40,0.0,2.7,90,0.00,,,0.00,VWS V14.00,2013-06-14 23:30:00,
2013-06-14 18:35:00,66.2,63.2,28.88,NE,46,3.6,5.4,90,0.00,,,0.00,VWS V14.00,2013-06-14 23:35:00,
2013-06-14 18:40:00,66.2,63.2,28.88,NE,38,3.1,3.1,90,0.00,,,0.00,VWS V14.00,2013-06-14 23:40:00,
2013-06-14 18:45:00,66.2,63.2,28.85,ENE,77,4.0,4.0,90,0.00,,,0.00,VWS V14.00,2013-06-14 23:45:00,
2013-06-14 18:50:00,65.8,63.1,28.85,East,93,3.6,4.0,91,0.00,,,0.00,VWS V14.00,2013-06-14 23:50:00,
2013-06-14 18:55:00,65.8,63.1,28.85,ENE,69,3.1,4.9,91,0.00,,,0.00,VWS V14.00,2013-06-14 23:55:00,
2013-06-14 19:00:00,65.7,63.0,28.85,NE,50,0.0,5.4,91,0.00,,OVC140,0.00,VWS V14.00,2013-06-15 00:00:00,
2013-06-14 19:05:00,65.7,63.0,28.85,ESE,110,2.7,5.4,91,0.00,,OVC140,0.00,VWS V14.00,2013-06-15 00:05:00,
2013-06-14 19:10:00,65.5,62.8,28.85,NE,52,5.4,5.4,91,0.00,,OVC140,0.00,VWS V14.00,2013-06-15 00:10:00,
2013-06-14 19:15:00,65.7,63.0,28.82,ESE,122,14.5,14.5,91,0.00,,OVC140,0.00,VWS V14.00,2013-06-15 00:15:00,
2013-06-14 19:20:00,65.8,63.1,28.82,ENE,72,8.7,8.7,91,0.00,,OVC140,0.00,VWS V14.00,2013-06-15 00:20:00,
2013-06-14 19:25:00,65.8,63.1,28.82,North,357,2.2,8.7,91,0.00,,-RA,0.00,VWS V14.00,2013-06-15 00:25:00,
2013-06-14 19:30:00,66.7,64.0,28.79,ESE,116,4.9,5.8,91,0.00,,-RA,0.00,VWS V14.00,2013-06-15 00:30:00,
2013-06-14 19:35:00,66.7,64.0,28.79,ENE,60,2.2,6.3,91,0.00,,-RA,0.00,VWS V14.00,2013-06-15 00:35:00,
2013-06-14 19:40:00,66.7,64.0,28.79,NE,52,4.0,6.3,91,0.00,,-RA,0.00,VWS V14.00,2013-06-15 00:40:00,
2013-06-14 19:45:00,67.5,64.8,28.79,SE,127,2.7,5.4,91,0.00,,-RA,0.00,VWS V14.00,2013-06-15 00:45:00,
2013-06-14 19:50:00,67.3,64.6,28.79,SE,138,3.6,5.8,91,0.00,,-RA,0.00,VWS V14.00,2013-06-15 00:50:00,
2013-06-14 19:55:00,66.4,63.4,28.79,SSE,164,6.3,6.3,90,0.00,,-RA,0.00,VWS V14.00,2013-06-15 00:55:00,
2013-06-14 20:00:00,66.0,63.3,28.76,ENE,58,4.0,6.3,91,0.00,,OVC250,0.00,VWS V14.00,2013-06-15 01:00:00,
2013-06-14 20:05:00,65.8,63.1,28.76,East,99,5.4,8.3,91,0.00,,OVC250,0.00,VWS V14.00,2013-06-15 01:05:00,
2013-06-14 20:10:00,65.7,63.0,28.76,NE,44,2.7,8.3,91,0.00,,OVC250,0.00,VWS V14.00,2013-06-15 01:10:00,
2013-06-14 20:15:00,65.3,62.6,28.76,East,88,0.0,5.4,91,0.00,,OVC250,0.00,VWS V14.00,2013-06-15 01:15:00,
2013-06-14 20:20:00,65.1,62.4,28.76,ESE,102,0.0,8.7,91,0.00,,OVC250,0.00,VWS V14.00,2013-06-15 01:20:00,
2013-06-14 20:25:00,64.9,62.2,28.76,NNE,21,4.0,4.0,91,0.00,,OVC250,0.00,VWS V14.00,2013-06-15 01:25:00,
2013-06-14 20:30:00,64.9,62.2,28.76,ESE,107,6.3,6.3,91,0.00,,OVC250,0.00,VWS V14.00,2013-06-15 01:30:00,
2013-06-14 20:35:00,64.6,61.9,28.76,SE,136,3.6,6.3,91,0.00,,OVC250,0.00,VWS V14.00,2013-06-15 01:35:00,
2013-06-14 20:40:00,64.4,61.7,28.76,ESE,117,2.7,6.3,91,0.00,,OVC250,0.00,VWS V14.00,2013-06-15 01:40:00,
2013-06-14 20:45:00,64.4,61.7,28.76,ENE,61,4.0,7.6,91,0.00,,OVC250,0.00,VWS V14.00,2013-06-15 01:45:00,
2013-06-14 20:50:00,64.6,61.9,28.76,ESE,116,2.7,7.6,91,0.00,,OVC250,0.00,VWS V14.00,2013-06-15 01:50:00,
2013-06-14 20:55:00,65.1,62.4,28.76,ESE,112,4.9,5.8,91,0.00,,OVC250,0.00,VWS V14.00,2013-06-15 01:55:00,
2013-06-14 21:00:00,65.7,63.0,28.73,SE,129,6.3,6.3,91,0.00,,OVC250,0.00,VWS V14.00,2013-06-15 02:00:00,
2013-06-14 21:05:00,66.0,63.3,28.73,SE,131,6.7,6.7,91,0.00,,OVC250,0.00,VWS V14.00,2013-06-15 02:05:00,
2013-06-14 21:10:00,66.6,63.9,28.73,SE,125,3.1,3.1,91,0.00,,OVC250,0.00,VWS V14.00,2013-06-15 02:10:00,
2013-06-14 21:15:00,66.9,64.2,28.73,ESE,123,3.6,5.8,91,0.00,,OVC250,0.00,VWS V14.00,2013-06-15 02:15:00,
2013-06-14 21:20:00,67.1,64.4,28.73,ESE,123,3.6,5.8,91,0.00,,OVC250,0.00,VWS V14.00,2013-06-15 02:20:00,
2013-06-14 21:25:00,67.5,64.8,28.73,ESE,123,3.1,6.3,91,0.00,,OVC250,0.00,VWS V14.00,2013-06-15 02:25:00,
2013-06-14 21:30:00,67.6,64.9,28.73,SE,126,2.7,6.3,91,0.00,,OVC250,0.00,VWS V14.00,2013-06-15 02:30:00,
2013-06-14 21:35:00,67.8,65.1,28.73,SE,126,3.6,7.6,91,0.00,,OVC250,0.00,VWS V14.00,2013-06-15 02:35:00,
2013-06-14 21:40:00,67.5,64.8,28.73,SE,135,8.1,8.7,91,0.00,,,0.00,VWS V14.00,2013-06-15 02:40:00,
2013-06-14 21:45:00,67.1,63.4,28.76,ESE,107,2.7,10.1,88,0.00,,,0.00,VWS V14.00,2013-06-15 02:45:00,
2013-06-14 21:50:00,67.3,59.1,28.76,SE,141,4.0,10.1,75,0.00,,,0.00,VWS V14.00,2013-06-15 02:50:00,
2013-06-14 21:55:00,68.0,54.5,28.76,SE,135,4.0,8.3,62,0.00,,,0.00,VWS V14.00,2013-06-15 02:55:00,
2013-06-14 22:00:00,68.4,51.6,28.76,SE,125,3.1,8.3,55,0.00,,,0.00,VWS V14.00,2013-06-15 03:00:00,
2013-06-14 22:05:00,68.7,46.5,28.76,SE,127,3.6,6.7,45,0.00,,,0.00,VWS V14.00,2013-06-15 03:05:00,
2013-06-14 22:10:00,69.1,45.0,28.76,SE,137,5.4,6.7,42,0.00,,,0.00,VWS V14.00,2013-06-15 03:10:00,
2013-06-14 22:15:00,69.3,45.2,28.79,SE,145,5.4,7.6,42,0.00,,,0.00,VWS V14.00,2013-06-15 03:15:00,
2013-06-14 22:19:00,68.5,45.8,28.79,SE,131,4.9,7.6,44,0.00,,,0.00,VWS V14.00,2013-06-15 03:19:00,
2013-06-14 22:24:00,67.3,45.8,28.79,SE,135,0.0,5.8,46,0.00,,,0.00,VWS V14.00,2013-06-15 03:24:00,
2013-06-14 22:29:00,66.2,47.6,28.76,SE,140,2.2,5.8,51,0.00,,,0.00,VWS V14.00,2013-06-15 03:29:00,
2013-06-14 22:34:00,65.7,50.5,28.76,SE,138,4.0,4.9,58,0.00,,,0.00,VWS V14.00,2013-06-15 03:34:00,
2013-06-14 22:39:00,65.5,53.0,28.76,SE,135,3.6,5.4,64,0.00,,,0.00,VWS V14.00,2013-06-15 03:39:00,
2013-06-14 22:44:00,65.5,54.7,28.76,SE,135,3.6,6.3,68,0.00,,,0.00,VWS V14.00,2013-06-15 03:44:00,
2013-06-14 22:49:00,65.7,55.6,28.76,SSE,162,0.0,6.3,70,0.00,,,0.00,VWS V14.00,2013-06-15 03:49:00,
2013-06-14 22:54:00,66.2,58.4,28.76,South,170,3.6,8.7,76,0.00,,,0.00,VWS V14.00,2013-06-15 03:54:00,
2013-06-14 22:59:00,66.7,60.0,28.85,SSW,199,10.1,10.1,79,0.00,,OVC120,0.00,VWS V14.00,2013-06-15 03:59:00,
2013-06-14 23:01:00,66.9,60.9,28.85,WSW,252,12.3,12.3,81,0.00,,OVC120,0.00,VWS V14.00,2013-06-15 04:01:00,
2013-06-14 23:06:00,66.4,60.4,28.85,NE,48,2.7,12.3,81,0.00,,OVC120,0.00,VWS V14.00,2013-06-15 04:06:00,
2013-06-14 23:11:00,65.3,59.7,28.85,ESE,112,4.0,5.4,82,0.00,,OVC120,0.00,VWS V14.00,2013-06-15 04:11:00,
2013-06-14 23:16:00,64.4,58.8,28.85,ESE,120,3.1,5.4,82,0.00,,OVC120,0.00,VWS V14.00,2013-06-15 04:16:00,
2013-06-14 23:21:00,63.9,58.6,28.85,ESE,123,4.9,5.8,83,0.00,,OVC120,0.00,VWS V14.00,2013-06-15 04:21:00,
2013-06-14 23:26:00,63.5,58.6,28.88,SE,145,4.0,8.3,84,0.00,,OVC120,0.00,VWS V14.00,2013-06-15 04:26:00,
2013-06-14 23:31:00,63.5,58.9,28.88,SE,142,0.0,2.7,85,0.00,,OVC120,0.00,VWS V14.00,2013-06-15 04:31:00,
2013-06-14 23:36:00,63.3,58.7,28.88,SE,142,0.0,4.0,85,0.00,,OVC120,0.00,VWS V14.00,2013-06-15 04:36:00,
2013-06-14 23:41:00,63.3,59.1,28.88,SE,140,0.0,0.0,86,0.00,,OVC120,0.00,VWS V14.00,2013-06-15 04:41:00,
2013-06-14 23:46:00,63.3,59.1,28.88,SE,140,0.0,0.0,86,0.00,,,0.00,VWS V14.00,2013-06-15 04:46:00,
2013-06-14 23:51:00,63.3,59.4,28.88,SE,140,0.0,0.0,87,0.00,,,0.00,VWS V14.00,2013-06-15 04:51:00,
2013-06-14 23:56:00,63.3,59.4,28.85,SE,142,0.0,0.0,87,0.00,,,0.00,VWS V14.00,2013-06-15 04:56:00,